Dewpoint
47 47 47 44 47 49 50 51 51 50 47 46 46 49 51 50 49 49 49 47 47 48 49 50 50 49 49 48 48 49 49 42 41 43 45 48 52 53 51 51 52 51 49 43 40 38 35 35 32 32 28 34 38 31 47 45 44 47 38 38 36 31 28 26 19 16 18 14 20 30 37 38 41 45 49 49 45 52 54 54 55 54 53 51 49 52 55 64
46 47 46 44 46 48 50 51 51 50 46 46 45 46 49 48 46 46 47 47 47 47 49 49 49 49 48 47 48 49 45 43 40 43 44 50 52 53 51 50 50 49 49 38 36 38 36 34 35 36 33 25 45 33 41 40 42 40 35 31 27 25 21 12 9 17 10 21 23 22 38 38 40 45 47 44 43 50 52 54 55 55 51 49 49 51 53 61
46 46 46 46 47 48 50 51 50 50 47 48 48 48 47 48 48 46 45 46 48 47 48 48 48 48 48 48 48 49 45 42 39 39 41 50 51 51 51 50 48 49 42 36 38 40 37 36 37 36 32 26 34 33 39 36 39 35 35 24 18 16 14 20 13 27 45 41 44 31 42 36 46 40 45 42 47 46 44 51 48 48 48 46 47 49 51 54
46 46 46 47 47 47 49 49 50 49 48 50 50 52 48 48 48 48 47 46 46 47 48 49 48 48 47 49 49 46 44 41 38 39 41 49 50 50 49 49 49 44 40 37 42 40 42 41 41 35 33 32 28 34 40 40 38 34 30 30 24 15 12 11 14 48 50 47 45 43 43 42 44 42 43 43 48 44 42 42 42 43 43 45 45 48 49 48
46 46 45 46 46 46 46 48 49 49 49 50 51 51 51 48 48 49 48 47 45 46 46 47 48 47 47 49 49 46 42 39 38 40 43 48 49 48 48 48 50 40 39 40 40 38 42 38 39 40 35 24 21 30 29 30 39 37 21 20 22 23 22 28 36 47 46 47 43 42 38 46 47 41 39 40 49 45 43 41 42 42 42 42 43 45 47 45
45 45 44 45 45 45 45 45 47 48 48 50 51 51 51 51 48 49 49 49 47 45 46 46 47 48 49 49 46 45 41 28 39 40 45 46 47 47 46 47 46 35 35 35 39 39 42 41 38 35 29 16 11 15 20 21 36 31 30 28 28 26 24 30 36 47 46 46 46 46 49 48 45 42 40 39 40 41 43 43 42 42 41 41 42 42 43 43
44 45 45 44 44 45 45 45 46 47 48 50 51 51 51 51 50 50 50 48 46 46 47 46 47 49 48 48 45 43 38 35 38 44 44 44 45 44 45 45 40 30 31 31 34 37 39 38 36 36 32 30 22 19 19 35 36 37 37 34 23 22 24 26 31 43 43 46 47 50 51 49 49 44 41 39 39 40 41 42 43 43 43 41 40 40 40 40
44 45 44 43 44 44 45 45 46 46 47 50 51 51 50 50 50 49 49 47 46 47 46 46 46 47 47 46 43 38 40 35 34 45 41 43 41 41 43 39 35 33 28 27 31 34 36 35 35 37 32 28 32 27 22 29 33 30 30 32 28 22 30 39 37 39 43 44 47 50 47 45 46 44 41 39 41 41 41 42 42 43 43 42 41 39 39 39
44 44 44 44 44 44 45 45 46 46 47 49 51 50 50 50 50 49 48 46 45 46 45 45 46 47 48 46 41 36 34 34 34 32 45 43 41 41 42 36 34 30 27 26 29 35 37 35 38 40 35 35 36 33 30 30 24 29 24 30 25 24 24 36 40 39 38 41 44 49 47 45 45 44 40 40 41 42 41 41 41 42 41 41 40 40 39 38
46 45 43 43 44 44 44 45 46 47 47 49 50 50 50 49 49 48 47 47 47 46 45 45 46 47 46 42 39 36 30 33 33 32 34 42 40 39 37 35 31 31 27 26 28 32 36 37 37 41 40 35 36 31 30 31 26 27 31 32 30 31 34 37 37 39 42 39 40 43 47 46 47 48 41 40 41 41 40 39 39 39 39 39 39 39 39 38
43 44 44 43 43 44 44 45 46 46 47 49 49 49 50 49 49 49 46 46 47 45 45 46 47 47 42 41 36 30 30 29 32 32 40 43 40 37 36 35 34 32 29 30 30 32 34 39 40 42 41 31 33 29 34 29 34 29 28 28 29 31 32 32 34 36 37 38 38 44 48 47 48 44 39 40 40 41 40 39 39 37 36 37 38 37 37 39
44 43 43 43 44 44 45 45 46 46 47 48 49 49 49 49 50 48 47 47 46 46 47 46 47 46 41 39 35 36 34 31 32 32 33 40 37 39 44 36 34 35 34 31 33 37 37 38 41 40 33 37 31 36 33 39 36 34 32 27 24 22 25 28 31 34 35 33 40 45 46 44 44 42 40 40 41 40 40 39 38 37 36 36 37 36 35 36
44 43 43 43 44 44 44 45 45 46 46 47 48 49 49 48 49 48 47 48 45 46 49 47 48 46 41 38 36 37 33 31 36 32 36 38 38 37 39 42 39 36 36 34 36 39 41 38 41 36 39 37 34 30 35 35 35 34 31 29 25 21 15 17 28 33 31 28 37 44 37 40 41 39 39 40 40 40 39 37 36 36 36 36 36 36 35 35
43 43 43 43 43 44 44 45 45 46 46 46 47 48 48 48 49 47 48 46 46 48 47 47 47 44 39 35 42 45 39 35 34 33 35 36 33 41 41 46 43 42 45 38 41 39 42 38 41 39 41 36 30 36 28 29 31 28 30 28 20 16 11 15 19 30 30 32 36 44 34 33 37 38 39 40 40 40 37 37 36 37 36 35 35 35 35 35
43 43 43 43 43 44 44 44 45 46 46 46 47 49 48 48 48 48 48 46 46 48 47 47 47 42 38 37 46 46 44 38 36 36 40 36 35 36 35 39 40 38 40 43 41 45 44 42 39 36 30 39 38 33 26 23 23 26 24 20 24 22 20 16 13 25 27 31 35 43 37 33 36 36 38 39 40 39 35 36 36 36 36 36 35 35 35 34
43 43 43 43 43 44 45 45 45 46 46 46 47 49 47 47 48 49 48 50 49 48 49 44 44 38 36 33 36 43 42 34 33 37 41 38 36 36 36 36 38 42 43 44 45 43 43 40 36 35 34 35 31 19 14 14 17 21 21 21 19 19 19 19 14 17 28 44 45 38 35 35 34 35 37 38 38 39 34 35 35 36 36 36 35 35 34 35
43 43 43 44 44 44 45 45 45 46 46 47 48 49 47 47 48 47 47 48 47 47 45 41 41 44 33 37 44 36 36 38 44 39 42 39 35 39 38 37 35 36 42 43 43 43 41 36 37 35 34 26 25 24 18 12 11 13 20 17 20 17 17 14 13 26 30 40 39 42 37 31 33 34 36 36 37 38 33 34 34 33 33 35 35 35 34 33
43 43 43 43 44 44 45 45 45 46 46 47 49 49 47 47 48 46 47 46 47 45 44 46 42 37 34 42 31 32 37 40 42 42 40 35 37 39 39 35 39 36 38 36 42 36 39 32 33 22 26 22 21 18 17 12 16 13 16 15 18 16 15 15 20 37 37 29 35 36 38 31 31 33 33 35 36 36 35 33 31 32 33 34 34 34 34 33
44 43 43 43 44 44 44 45 45 46 46 48 49 50 49 48 47 46 42 44 40 38 38 39 36 29 29 34 41 41 39 42 45 42 38 41 43 43 41 42 37 34 31 30 31 33 35 29 30 23 16 17 17 16 14 16 18 19 20 19 17 18 13 15 36 34 36 36 34 32 33 31 31 31 32 32 33 34 34 33 32 32 32 32 33 33 33 34
44 44 44 44 44 44 45 45 46 46 47 46 45 44 45 42 39 40 41 41 37 35 36 37 40 38 38 39 38 41 42 46 38 42 41 43 41 39 38 39 37 35 31 25 30 29 35 24 19 17 14 15 17 16 14 17 21 19 19 18 17 15 20 33 33 36 36 33 30 31 31 30 29 29 29 31 31 32 33 32 32 32 33 32 33 31 31 31
44 44 44 44 44 45 45 45 46 47 47 46 44 40 33 33 32 31 34 33 36 40 39 39 38 38 37 39 40 37 34 37 41 39 42 47 42 38 34 35 32 27 27 27 26 35 31 22 19 20 18 13 19 16 19 21 20 23 17 14 12 13 16 30 31 33 36 32 29 30 29 28 29 29 29 29 30 31 32 31 31 31 32 32 32 32 30 30
44 44 44 44 44 44 45 46 46 46 47 47 45 37 36 39 40 41 35 29 36 39 41 40 41 36 41 41 43 41 40 35 35 41 44 41 36 32 33 31 30 25 26 27 26 24 23 19 19 20 15 19 21 19 22 23 19 20 15 14 14 16 16 21 32 35 34 31 30 29 27 27 28 28 29 28 29 30 31 31 31 31 30 33 30 30 30 30
44 44 44 44 44 44 45 46 46 47 45 41 38 37 38 39 42 45 41 35 34 42 39 39 36 39 39 42 40 44 35 33 33 36 41 41 37 35 34 31 28 28 28 27 23 24 20 20 21 23 20 12 16 20 18 20 22 18 15 10 7 13 15 13 32 32 32 31 28 29 26 27 24 25 27 28 29 28 30 31 31 33 30 30 29 30 30 30
44 44 44 44 44 45 45 46 46 45 44 40 37 40 43 43 44 42 38 33 29 37 37 39 40 38 37 39 42 39 35 34 34 33 43 40 34 36 32 30 28 27 24 26 24 23 22 24 25 23 23 18 17 18 17 15 12 18 18 14 10 12 15 19 25 30 29 31 28 28 26 27 25 22 22 26 28 29 29 30 29 30 33 32 31 31 30 30
44 44 44 45 45 45 46 46 43 42 40 38 40 42 42 45 44 45 34 33 33 32 40 39 40 37 40 45 43 35 34 36 36 38 41 39 37 33 32 35 29 25 27 26 26 24 23 24 27 24 21 21 22 19 18 19 14 12 16 17 16 16 20 23 27 26 22 22 30 28 18 17 25 25 26 26 25 26 27 28 28 29 30 32 30 29 30 30
45 45 44 45 45 45 46 44 41 44 38 39 41 44 42 47 45 46 37 26 22 32 37 31 42 37 44 37 41 38 36 34 39 41 41 40 42 37 34 30 30 26 28 27 24 24 24 25 26 20 21 23 22 21 20 21 15 12 11 20 18 18 16 23 23 21 16 15 22 29 18 11 24 23 23 24 24 24 26 27 28 28 29 30 31 30 30 29
45 45 45 45 45 45 44 40 40 43 40 40 45 42 44 47 44 41 33 26 20 29 25 37 36 36 40 36 36 37 25 29 40 41 39 42 37 43 32 27 29 31 31 25 21 20 24 27 24 25 22 22 22 20 21 18 17 14 27 27 25 23 20 21 22 22 20 22 28 29 26 19 17 21 23 23 23 24 24 25 27 28 28 29 30 30 30 30
45 45 45 45 45 46 44 43 42 39 40 42 46 43 46 45 46 42 32 11 5 26 28 32 39 46 39 38 39 30 31 35 31 36 39 42 41 37 33 29 28 28 28 26 17 26 27 24 25 22 22 20 19 20 22 21 18 17 28 28 25 24 23 21 21 21 21 16 15 25 26 22 21 24 26 24 23 25 25 25 26 27 28 29 30 31 30 31
45 46 45 46 47 47 47 43 42 39 43 44 46 42 45 43 39 34 25 9 13 25 37 32 43 41 38 38 33 33 33 35 29 35 40 41 42 37 31 31 32 30 30 28 22 23 29 29 30 30 27 22 22 19 19 20 19 23 23 29 28 26 26 24 22 21 18 16 14 15 26 20 19 26 23 26 26 25 24 25 26 27 28 28 29 30 29 30
45 46 46 46 47 47 44 43 40 44 45 47 45 43 40 40 33 28 16 -2 16 18 31 31 33 27 31 27 27 32 28 31 33 34 35 35 38 38 35 39 34 28 26 29 27 27 24 34 33 30 27 25 24 25 27 25 22 26 27 24 23 23 23 22 24 19 17 14 15 17 23 23 16 21 25 24 24 26 27 27 26 27 28 28 28 28 29 29
46 46 46 46 43 45 41 38 44 48 46 47 47 43 39 33 27 15 -0 4 19 21 30 29 24 32 25 23 21 30 27 29 29 32 29 35 33 35 35 33 34 28 27 27 27 27 27 28 28 28 29 26 27 26 29 28 29 27 22 21 19 20 19 17 17 18 16 13 15 18 19 25 16 17 26 26 26 26 27 27 27 27 27 28 27 28 30 29
46 46 47 46 48 46 39 42 44 48 48 46 43 40 33 26 28 1 -2 35 11 21 20 21 27 26 24 27 25 24 23 29 29 27 28 29 29 29 30 24 27 21 22 23 20 25 25 26 28 28 31 31 29 26 25 25 28 26 20 20 15 9 12 9 12 9 13 11 13 17 18 20 22 22 22 27 27 26 27 28 28 27 28 28 28 29 31 31
46 46 47 47 47 43 45 44 47 47 47 44 40 35 30 22 1 13 12 17 14 19 20 27 24 24 23 24 21 24 26 24 29 27 27 28 29 29 29 27 28 25 17 19 20 19 22 24 25 26 29 30 30 24 21 20 24 23 21 18 13 8 6 3 5 6 7 11 16 15 21 17 20 23 25 24 25 27 28 29 30 28 28 28 28 29 31 31
46 48 46 46 45 45 45 44 47 46 42 40 36 31 27 15 3 22 12 18 16 29 28 25 24 23 23 22 18 24 19 25 25 24 30 27 30 27 29 31 29 27 23 23 19 15 10 12 22 25 22 29 29 26 23 23 21 22 21 19 16 9 3 0 3 2 3 8 8 18 18 16 17 19 25 25 26 25 28 29 30 29 29 29 29 29 29 30
47 47 46 45 44 43 44 45 46 44 41 36 33 28 20 8 9 13 14 19 22 27 26 25 22 22 21 21 23 25 23 19 27 24 24 26 25 24 26 28 31 30 28 22 18 12 10 11 19 28 31 30 28 29 28 27 25 25 23 21 17 17 18 13 13 15 14 16 15 19 19 21 22 27 30 28 28 28 29 31 31 29 29 28 28 28 28 29
46 45 45 43 43 43 45 45 45 44 39 34 30 25 20 12 10 17 23 29 28 21 20 22 19 19 21 22 22 19 26 22 25 24 24 24 24 22 25 26 27 30 27 19 18 14 17 15 26 29 32 28 28 27 28 26 17 20 22 18 19 27 23 21 18 19 22 21 17 24 22 24 24 26 27 27 27 27 29 30 30 29 29 28 27 28 28 28
44 41 41 42 43 43 45 45 44 41 37 34 28 22 23 20 25 26 30 26 26 25 20 17 17 14 12 11 16 20 22 24 22 22 22 25 24 24 22 24 30 30 30 29 25 24 17 18 26 27 26 29 32 33 34 33 28 25 19 21 29 30 26 20 14 17 18 14 13 23 21 21 22 18 27 26 26 27 28 28 29 28 28 27 27 28 28 28
42 37 40 38 38 43 44 46 44 39 36 31 27 27 22 20 31 31 31 29 28 27 21 18 18 18 13 13 15 15 18 18 17 21 18 24 20 25 23 22 27 27 30 30 26 25 27 22 25 26 28 32 35 32 29 32 32 27 26 32 25 19 17 23 20 12 12 13 15 22 23 20 21 20 23 24 25 26 27 28 27 27 27 27 27 27 27 28
42 39 34 35 42 44 44 46 41 37 33 27 26 24 28 26 30 29 31 29 26 24 22 22 15 19 16 15 16 17 14 13 15 15 16 19 17 26 24 22 24 27 30 30 25 26 27 22 24 29 29 31 31 28 21 24 34 33 33 29 32 29 24 20 19 22 22 16 18 16 23 20 25 22 25 24 25 26 27 27 27 27 27 27 27 27 27 27
40 35 34 37 43 44 42 43 38 35 30 25 23 25 24 21 27 31 27 28 25 23 22 20 21 13 19 19 17 15 17 16 15 14 14 17 19 28 24 27 24 28 28 30 28 30 26 28 21 28 33 32 25 28 23 24 27 28 28 25 29 28 31 28 28 25 21 20 19 19 17 21 23 22 23 25 25 25 26 27 27 27 27 27 27 26 27 27
42 33 33 38 43 45 42 39 34 30 29 24 22 23 22 22 27 29 31 31 29 29 26 26 24 19 18 16 15 21 17 18 17 16 12 14 16 18 27 24 23 23 27 28 27 28 26 27 23 28 28 27 25 28 27 28 31 28 26 24 26 26 24 21 18 28 26 23 20 19 17 21 24 20 22 22 25 26 27 27 27 27 27 27 27 27 26 27
34 30 33 36 43 42 37 30 27 19 21 22 23 24 26 28 25 26 26 28 26 24 29 20 22 19 19 20 20 20 17 14 17 16 13 14 16 14 24 22 21 26 26 26 27 29 28 30 27 24 24 25 27 33 33 33 33 32 32 30 32 30 29 25 18 24 26 26 23 21 17 22 19 19 20 21 22 26 26 27 27 27 26 26 27 27 27 26
33 28 32 38 42 38 33 29 28 25 21 25 27 26 28 28 26 24 24 26 22 25 23 23 19 19 21 17 18 19 19 14 17 15 18 17 17 19 26 24 24 24 27 24 29 29 31 26 24 24 23 30 30 31 30 30 31 30 31 32 31 28 30 28 27 28 24 23 22 22 19 23 24 24 21 22 24 26 27 27 27 26 26 26 27 27 27 26
32 31 32 39 42 38 31 22 22 25 28 24 26 24 29 27 24 21 22 24 21 22 21 19 20 23 18 20 15 9 19 12 19 17 15 15 14 24 21 24 25 23 24 26 26 29 24 25 24 22 24 26 27 27 27 28 29 28 28 30 30 30 30 31 31 31 24 24 24 22 18 20 25 23 25 23 25 25 26 27 26 26 26 27 26 27 27 26
28 32 31 36 38 36 29 25 22 21 24 23 19 18 24 25 28 25 22 21 23 18 17 15 18 19 16 20 14 13 14 16 12 16 16 15 14 24 23 25 24 21 27 30 31 30 24 24 21 17 16 16 17 17 16 21 24 26 28 28 30 30 29 29 25 27 23 23 22 19 20 19 21 25 24 24 25 24 25 26 27 26 26 26 26 27 27 26
28 25 28 29 32 34 31 26 24 19 21 20 16 19 22 18 27 27 27 20 22 20 16 20 18 14 14 17 14 15 15 18 12 8 11 8 17 23 23 24 24 21 23 26 27 28 23 21 21 21 18 18 19 20 21 23 21 21 25 26 27 29 30 29 29 26 23 24 21 21 21 19 20 23 24 25 26 24 25 25 25 26 26 26 26 27 27 26
28 23 25 26 28 29 28 27 23 20 16 19 13 19 13 15 22 24 27 17 21 18 19 18 16 14 14 15 12 10 14 11 17 14 11 8 11 17 23 22 22 24 23 25 28 26 19 19 21 20 20 21 21 21 22 22 19 20 21 23 27 28 28 28 26 24 25 24 21 20 21 21 21 22 24 25 26 25 24 24 25 25 26 27 27 27 30 27
25 27 26 24 22 25 27 26 24 22 25 19 15 19 17 16 16 13 24 23 16 18 16 12 15 16 16 16 13 6 11 8 10 10 16 13 8 10 18 21 20 22 24 26 29 25 19 18 18 21 21 22 22 22 21 20 19 19 20 21 23 26 26 24 25 26 25 21 22 24 25 23 23 22 23 26 26 25 24 24 25 25 26 27 27 27 27 27
32 28 26 29 23 24 24 29 27 25 25 21 18 20 17 15 14 16 17 19 19 13 17 12 13 15 15 17 14 7 12 4 6 9 6 8 12 8 9 13 17 24 20 20 24 22 18 19 19 18 18 19 20 20 20 18 16 17 18 18 20 23 25 25 25 25 25 25 25 25 25 24 24 23 23 25 27 27 26 25 25 26 26 27 27 27 27 27
27 24 28 26 27 19 24 24 27 24 19 24 19 19 18 17 16 18 16 15 11 16 18 13 14 16 17 16 15 7 12 16 15 11 18 14 11 13 10 14 13 17 17 18 20 21 18 17 22 19 15 16 18 21 20 16 14 12 13 16 18 21 22 24 25 25 25 24 24 24 23 22 23 24 25 26 28 27 26 24 24 25 27 27 27 27 27 27
32 29 31 23 22 21 22 21 20 19 16 20 17 22 22 21 18 19 17 17 16 16 15 13 16 17 18 17 15 12 15 17 18 19 19 16 10 19 11 15 16 11 17 15 16 16 16 17 15 13 12 13 14 10 14 14 12 10 8 10 13 16 18 20 22 24 23 22 23 23 22 21 22 24 26 28 27 26 26 25 24 25 26 27 28 28 28 28
30 31 32 27 20 29 21 15 15 17 18 20 20 22 20 20 21 16 12 21 18 23 19 17 20 13 17 18 15 16 22 21 20 21 20 20 20 20 20 20 19 15 12 12 15 13 13 13 14 15 12 10 9 9 4 1 4 7 11 11 10 12 15 18 22 24 24 23 21 20 21 23 24 26 24 25 27 26 26 25 25 25 26 27 27 28 28 28